Safety.Discipline.Integrity

Call Now: (805) 469.3343

This email address is being protected from spambots. You need JavaScript enabled to view it. This email address is being protected from spambots. You need JavaScript enabled to view it.

icon fb   youtube 50

Phantom Aviation

Phantom Aviation is the premier Private Flight Academy in Southern California. We teach our students utilizing state of the art training techniques that leverage natural learning abilities to ensure our pilots become the safest pilots in the sky. This all starts on the ground where we train and specialize in flight safety utilizing our integrated pilot training techniques and the most advanced flight training materials in the industry. In the air we use our legendary SISO-SBTTM scenario based training that demands students fully apply their training in order to advance to the next lesson. At Phantom, we not only teach to FAA test standards, we go above and beyond providing our pilots with the most real world experience that can be garnered in flight training. Phantom pilot graduates are in a class of their own; the Phantom Elite.

At Phantom Aviation we have excellent aircraft under our maintenance program that sacrifices nothing to ensure your safety, competitive rates, superior training, and experienced professional instructors who are dedicated to help you realize your dream of becoming Phantom Elite.

Schedulepointe

User Name: Password :

Airport Diagram

Latest Weather

  • KCMA METAR Jul 23, 2014 | 02:55 am

    KCMA 230755Z 00000KT 10SM CLR 19/14 A3000 RMK AO2 SLP166 T01890144 402780156

    Read more...
  • KOXR METAR Jul 23, 2014 | 02:51 am

    KOXR 230751Z AUTO 00000KT 10SM CLR 18/16 A3000 RMK AO2 SLP158 T01780156 402500161 $

    Read more...
Go to top